Hourly Data Report for October 11, 2019

All times are specified in Local Standard Time (LST). Add 1 hour to adjust for Daylight Saving Time where and when it is observed.

WOODSTOCK NEWBRIDGE
NEW BRUNSWICK
Current Station Operator: ECCC - MSC

46°09'08.000" N
67°32'34.000" W
154.00 m
8105603
71606
EWD

Download Data

Hourly Data (October 2019)
Hourly Data Report for October 11, 2019
TIME Temp Definition
°C
Dew Point Definition
°C
Rel Hum Definition
%
Wind Dir Definition
10's deg

Wind Spd Definition
km/h
Visibility Definition
km
Stn Press Definition
kPa
Hmdx Definition


Wind Chill Definition


Weather Definition


00:00 2.0 1.4 96   0   101.30     LegendNANA
01:00 1.9 1.2 96   0   101.30     LegendNANA
02:00 0.8 0.1 95   0   101.29     LegendNANA
03:00 1.0 0.7 98 0 1   101.27     LegendNANA
04:00 1.0 0.7 98 34 2   101.30     LegendNANA
05:00 0.5 0.1 97   0   101.31     LegendNANA
06:00 0.1 -0.3 97   0   101.31     LegendNANA
07:00 0.8 0.5 98 36 2   101.33     LegendNANA
08:00 3.7 3.4 98 36 2   101.35     LegendNANA
09:00 7.0 4.5 84 34 2   101.34     LegendNANA
10:00 10.6 6.2 74 35 3   101.32     LegendNANA
11:00 12.2 4.3 58 6 7   101.31     LegendNANA
12:00 13.7 4.0 52 5 12   101.21     LegendNANA
13:00 15.5 2.1 40 8 10   101.14     LegendNANA
14:00 16.1 2.0 39 4 11   101.09     LegendNANA
15:00 15.3 0.6 37 4 12   101.05     LegendNANA
16:00 15.2 0.6 37 5 10   101.01     LegendNANA
17:00 13.8 2.5 46 4 9   100.96     LegendNANA
18:00 13.2 4.1 54 5 5   100.95     LegendNANA
19:00 12.0 3.7 56 3 7   100.92     LegendNANA
20:00 11.6 4.8 63 5 9   100.92     LegendNANA
21:00 11.0 5.5 69 6 9   100.86     LegendNANA
22:00 10.7 4.9 68 6 10   100.84     LegendNANA
23:00 10.4 5.3 70 7 9   100.76     LegendNANA

Notes on Data Quality.

Legend

  • E = Estimated
  • M = Missing
  • NA = Not Available
Date modified: